Location: Waco, TX
(31.5480°N, 97.1670°W)
Time: 21:34:30
(UTC-05:00)

ISS - Pass Details

Date: 21 May 2018
Orbit: 402 x 407 km, 51.6° (Epoch: 26 May)

Event Time Altitude Azimuth Distance (km) Brightness Sun altitude
Rises 21:19:56 0° 226° (SW) 2,305 0.2 -11.6°
Reaches altitude 10° 21:22:00 10° 228° (SW) 1,449 -0.8 -12.0°
Maximum altitude 21:25:15 79° 315° (NW) 413 -3.7 -12.5°
Drops below altitude 10° 21:28:30 10° 42° (NE) 1,454 -1.1 -13.1°
Sets 21:30:35 0° 44° (NE) 2,314 -0.1 -13.5°
